Date,TemperatureHighF,TemperatureAvgF,TemperatureLowF,DewpointHighF,DewpointAvgF,DewpointLowF,HumidityHigh,HumidityAvg,HumidityLow,PressureMaxIn,PressureMinIn,WindSpeedMaxMPH,WindSpeedAvgMPH,GustSpeedMaxMPH,PrecipitationSumIn
2014-1-1,62,58,54,54,49,45,86,72,61,30.29,30.07,15,5,15,0.12
2014-1-2,70,64,56,56,52,48,88,65,61,30.07,29.82,36,4,36,0.48
2014-1-3,56,44,37,52,32,25,88,65,47,30.32,29.97,25,8,25,0.00
2014-1-4,62,51,38,55,46,33,89,84,75,30.28,30.10,16,5,16,0.00
2014-1-5,79,64,53,67,56,44,88,75,64,30.11,29.96,7,1,9,0.00
2014-1-6,69,56,39,63,46,26,89,70,55,30.35,29.92,18,6,23,0.07
2014-1-7,44,36,29,26,18,13,67,48,31,30.48,30.33,26,8,26,0.00
2014-1-8,57,45,31,51,38,20,88,78,60,30.45,30.31,18,7,18,0.00
2014-1-9,67,59,50,58,51,45,89,76,71,30.34,30.21,16,5,16,0.27
2014-1-10,80,71,65,72,64,56,89,78,70,30.22,30.05,11,3,11,0.00
2014-1-11,82,71,64,72,63,56,90,76,62,30.08,29.88,29,6,32,0.76
2014-1-12,66,58,43,60,47,38,91,68,39,30.22,29.98,16,4,16,0.00
2014-1-13,77,60,43,64,54,40,91,81,60,30.19,29.95,21,2,21,0.00
2014-1-14,71,64,52,66,59,48,92,84,71,30.02,29.90,19,3,19,0.85
2014-1-15,64,54,43,52,45,39,92,75,45,30.07,29.93,17,3,17,0.03
2014-1-16,53,45,35,49,31,22,91,61,31,30.18,29.98,20,5,20,0.00
2014-1-17,65,48,32,49,40,29,92,75,48,30.22,30.09,16,3,16,0.00
2014-1-18,55,46,35,49,30,16,91,57,22,30.30,30.09,20,5,20,0.00
2014-1-19,64,48,33,54,43,30,92,82,64,30.22,30.10,19,3,19,0.00
2014-1-20,69,52,39,53,44,35,92,76,45,30.17,30.03,16,2,16,0.01
2014-1-21,71,58,49,61,53,36,92,82,54,30.03,29.78,28,7,28,0.10
2014-1-22,52,43,34,36,28,22,88,58,32,30.21,29.92,18,5,18,0.00
2014-1-23,59,43,30,34,29,20,92,63,31,30.39,30.20,14,2,14,0.00
2014-1-24,53,44,40,34,27,15,75,53,28,30.50,30.31,19,6,19,0.00
2014-1-25,68,52,40,51,42,34,90,71,41,30.33,30.01,17,4,17,0.01
2014-1-26,67,58,47,56,52,44,92,81,63,30.08,29.98,13,2,13,0.00
2014-1-27,74,62,53,64,56,50,92,83,66,30.02,29.92,13,2,16,0.02
2014-1-28,79,64,51,66,58,47,93,80,60,30.06,29.94,21,3,21,0.01
2014-1-29,61,44,40,56,42,38,98,92,85,30.25,29.98,21,7,21,0.54
2014-1-30,45,41,37,43,39,35,92,92,90,30.24,30.12,17,6,17,0.40
2014-1-31,58,50,42,54,47,40,92,88,86,30.17,30.07,16,5,16,0.19
2014-2-1,79,66,56,72,60,51,91,83,75,30.14,30.05,16,3,16,0.00
2014-2-2,81,68,60,71,60,51,87,73,60,30.17,30.05,12,2,12,0.01
2014-2-3,83,71,62,71,55,34,82,58,32,30.12,30.01,15,3,15,0.01
2014-2-4,84,70,59,72,45,0,77,46,6,30.13,30.00,12,2,12,0.02
2014-2-5,82,72,67,72,32,-37,73,34,1,30.06,29.96,26,5,26,0.00
2014-2-6,68,56,47,56,35,7,76,51,15,30.24,30.05,19,6,19,0.32
2014-2-7,52,49,46,7,-20,-47,19,6,1,30.23,30.14,18,6,18,0.08
2014-2-8,53,51,49,-28,-46,-48,3,1,1,30.17,30.07,18,4,18,0.97
2014-2-9,71,55,42,55,2,-52,68,29,1,30.17,30.05,14,3,14,0.00
2014-2-10,47,43,40,-49,-52,-53,1,1,1,30.11,30.08,0,0,0,0.00
2014-2-18,79,68,45,55,39,-50,63,41,1,30.24,30.14,10,2,10,0.00
2014-2-19,82,66,52,62,7,-46,62,24,1,30.20,30.06,16,3,16,0.00
2014-2-20,84,66,50,65,0,-47,60,21,1,30.16,30.04,24,4,24,0.00
2014-2-21,79,68,63,36,-35,-39,25,1,1,30.06,29.98,19,4,19,0.09
2014-2-22,79,67,60,51,-27,-41,38,4,1,30.11,30.01,17,3,17,0.01
2014-2-23,82,62,59,60,-37,-42,47,2,1,30.08,29.98,12,2,16,0.00
2014-2-24,69,61,57,-36,-40,-43,1,1,1,30.08,29.95,11,1,11,0.00
2014-2-25,80,64,54,62,-7,-45,58,18,1,30.08,29.93,14,2,14,0.02
2014-2-26,61,56,50,-41,-44,-47,1,1,1,29.97,29.74,18,2,18,0.75
2014-2-27,59,53,43,45,15,-52,63,39,1,29.98,29.79,16,3,21,0.03
2014-2-28,69,54,40,47,25,-54,87,41,1,30.14,29.96,14,2,14,0.00
2014-3-1,72,57,44,58,48,41,97,78,35,30.26,30.09,14,3,14,0.01
2014-3-2,79,64,52,58,54,50,98,72,40,30.24,30.06,15,2,15,0.01
2014-3-3,81,67,53,62,58,52,96,75,43,30.07,29.96,25,5,25,0.00
2014-3-4,73,64,54,65,60,52,96,88,70,30.08,29.98,17,4,17,0.01
2014-3-5,58,54,54,55,52,52,95,93,89,30.08,29.99,14,4,14,0.00
2014-3-6,69,63,56,65,61,55,96,92,84,30.07,29.72,14,4,21,0.32
2014-3-7,56,51,46,55,48,42,99,88,75,30.09,29.77,22,6,22,0.00
2014-3-8,71,55,40,54,46,39,97,76,44,30.19,30.06,13,2,13,0.01
2014-3-9,77,62,48,54,50,46,100,70,36,30.22,30.08,16,2,16,0.00
2014-3-10,79,64,50,57,52,48,95,69,37,30.14,29.95,10,2,14,0.00
2014-3-11,80,64,51,62,54,42,100,75,26,30.01,29.82,14,2,14,0.03
2014-3-18,73,67,59,58,54,50,89,64,46,30.07,29.84,13,3,13,0.03
2014-3-19,74,60,57,57,55,53,93,87,48,30.14,30.02,10,3,11,0.00
2014-3-20,79,68,56,62,58,54,98,72,45,30.11,29.96,13,2,13,0.00
2014-3-21,81,68,56,61,57,52,97,70,38,30.11,30.01,15,3,15,0.00
2014-3-22,82,72,66,67,60,50,90,69,38,30.07,29.95,19,5,19,0.01
2014-3-23,80,70,62,69,64,58,94,82,67,30.04,29.93,19,4,19,0.00
2014-3-24,69,65,60,66,60,55,95,83,70,30.09,29.93,18,6,18,0.00
2014-3-25,75,63,56,60,50,25,93,66,27,30.06,29.83,30,8,30,0.01
2014-3-26,63,52,41,40,26,18,71,37,21,30.32,30.06,21,6,21,0.00
2014-3-27,70,59,47,58,50,38,84,72,60,30.34,30.22,19,4,19,0.00
2014-3-28,81,71,61,65,61,57,89,73,49,30.22,30.01,24,6,24,0.01
2014-3-29,72,69,65,70,66,61,97,91,81,30.04,29.86,21,7,28,2.17
2014-3-30,74,62,52,62,49,39,96,66,29,30.10,29.92,21,6,21,0.01
2014-3-31,78,61,48,52,46,32,99,63,23,30.17,30.08,11,1,11,0.00
2014-4-1,82,64,46,57,47,37,96,62,21,30.20,30.10,9,1,12,0.00
2014-4-2,83,68,51,61,54,48,96,65,32,30.20,30.10,13,3,13,0.00
2014-4-3,85,70,57,64,59,53,97,70,36,30.15,30.02,15,3,15,0.00
2014-4-4,84,71,59,67,63,58,98,78,46,30.07,29.98,18,4,18,0.00
2014-4-5,83,72,65,70,64,62,98,79,52,30.06,29.95,12,2,12,0.00
2014-4-6,86,75,66,67,63,57,93,69,39,30.05,29.92,18,3,18,0.00
2014-4-7,90,77,67,69,66,63,96,72,43,29.94,29.80,25,7,25,0.00
2014-4-8,78,70,61,71,64,52,94,82,69,29.86,29.71,25,7,25,0.18
2014-4-9,74,64,54,54,51,44,92,66,37,30.18,29.86,18,4,18,0.02
2014-4-10,78,65,50,58,52,44,97,67,35,30.30,30.17,17,2,17,0.00
2014-4-11,82,68,54,63,58,52,96,73,41,30.27,30.12,18,3,18,0.00
2014-4-12,83,71,61,66,59,51,95,69,36,30.21,30.09,17,4,17,0.00
2014-4-13,84,72,58,66,61,57,96,71,44,30.15,30.01,20,5,20,0.00
2014-4-14,87,75,67,70,65,56,91,72,38,30.05,29.87,18,4,18,0.00
2014-4-15,84,72,59,74,66,53,94,83,58,30.00,29.77,28,7,28,1.02
2014-4-16,74,60,46,58,51,40,87,74,54,30.18,30.00,26,9,26,0.00
2014-4-17,77,67,56,66,60,53,95,79,59,30.23,30.13,22,7,22,0.00
2014-4-18,78,70,66,72,66,61,96,89,77,30.16,29.91,34,5,34,0.23
2014-4-19,71,66,62,67,63,58,97,88,75,29.99,29.85,20,6,20,0.01
2014-4-20,68,62,60,60,58,57,96,87,73,30.11,29.96,15,5,16,0.00
2014-4-21,70,64,60,62,59,56,95,82,71,30.10,29.98,14,3,14,0.00
2014-4-22,79,67,54,64,59,54,100,79,52,29.99,29.84,14,3,18,0.00
2014-4-23,84,70,59,66,62,58,98,78,48,29.95,29.85,15,3,15,0.00
2014-4-24,86,73,62,69,64,60,98,77,47,30.02,29.91,16,2,16,0.00
2014-4-25,86,74,62,68,64,60,98,76,43,30.01,29.92,20,4,20,0.00
2014-4-26,86,75,64,71,66,61,98,76,44,30.03,29.93,16,2,16,0.00
2014-4-27,89,77,63,73,66,62,96,73,45,30.01,29.90,16,3,16,0.00
2014-4-28,92,79,67,70,66,62,95,68,40,29.97,29.85,20,4,20,0.00
2014-4-29,90,76,69,74,70,64,95,82,46,30.00,29.85,19,5,19,0.19
2014-4-30,86,75,69,75,70,67,97,87,65,30.06,29.93,33,4,33,0.30
2014-5-1,87,76,70,75,70,66,95,81,59,30.02,29.93,23,5,23,0.32
2014-5-2,73,70,67,71,68,65,98,94,85,29.97,29.88,14,2,14,0.37
2014-5-3,70,65,58,69,64,58,98,96,90,30.06,29.88,17,3,17,1.06
2014-5-4,84,69,53,60,56,50,99,68,33,30.10,30.00,17,2,17,0.00
2014-5-5,89,74,58,63,58,52,98,64,30,30.08,29.96,13,2,13,0.00
2014-5-6,88,75,59,65,58,48,95,62,28,30.05,29.96,13,2,13,0.00
2014-5-7,89,77,62,71,63,57,95,65,35,30.14,30.02,18,5,18,0.00
2014-5-8,90,79,68,72,66,58,96,68,36,30.20,30.10,17,6,17,0.00
2014-5-9,88,80,71,71,68,62,96,70,44,30.19,30.06,20,6,20,0.00
2014-5-10,88,80,72,72,69,63,94,72,46,30.14,30.03,24,5,24,0.00
2014-5-11,88,80,73,73,71,67,89,76,53,30.15,30.04,19,4,19,0.05
2014-5-12,88,77,66,72,67,62,97,75,44,30.17,30.07,20,4,20,0.01
2014-5-13,88,78,68,72,69,66,97,76,51,30.10,30.01,19,5,19,0.00
2014-5-14,88,78,72,75,72,70,96,81,57,30.08,29.92,23,6,23,0.13
2014-5-15,85,78,72,77,72,68,96,84,65,30.01,29.86,20,7,20,0.06
2014-5-16,80,69,58,68,52,44,86,58,30,30.12,29.97,21,7,21,0.00
2014-5-17,82,69,56,54,50,45,86,55,29,30.19,30.10,20,4,20,0.00
2014-5-18,85,70,54,62,56,50,93,64,34,30.18,30.10,17,4,17,0.00
2014-5-19,88,74,59,66,60,51,96,67,29,30.19,30.11,15,3,15,0.00
2014-5-20,86,74,63,68,61,53,96,67,40,30.23,30.15,19,4,19,0.05
2014-5-21,88,74,57,64,58,49,94,63,33,30.20,30.09,12,2,12,0.00
2014-5-22,92,78,65,71,66,62,92,69,41,30.16,30.02,15,4,18,0.00
2014-5-23,94,80,68,72,68,64,95,70,39,30.09,29.98,16,4,16,0.00
2014-5-24,94,82,71,75,70,65,97,69,39,30.08,29.98,10,2,12,0.02
2014-5-25,92,80,73,76,70,58,93,73,44,30.13,30.01,27,3,27,0.04
2014-5-26,90,77,71,75,70,62,98,82,43,30.19,30.08,32,3,32,0.15
2014-5-27,87,78,68,74,69,63,98,78,46,30.16,30.03,15,3,15,0.03
2014-5-28,88,78,69,73,69,62,97,77,46,30.09,29.98,18,2,18,0.00
2014-5-29,91,78,70,74,70,56,96,78,32,30.05,29.92,14,4,21,0.38
2014-5-30,88,76,68,74,70,67,97,84,55,30.03,29.96,28,3,28,0.32
2014-5-31,86,76,71,75,72,69,97,86,67,30.05,29.98,17,2,17,0.05
2014-6-1,86,76,71,75,72,70,97,88,63,30.10,30.02,20,4,20,0.45
2014-6-2,84,76,71,71,68,64,95,76,56,30.13,30.05,22,5,22,0.00
2014-6-3,82,75,66,69,66,64,91,75,56,30.10,29.99,17,3,17,0.01
2014-6-4,86,77,66,69,65,60,96,70,44,30.02,29.90,13,2,14,0.00
2014-6-5,90,78,66,72,67,64,92,69,44,29.97,29.87,12,3,12,0.00
2014-6-6,91,80,70,73,69,64,93,71,43,30.00,29.89,16,4,16,0.00
2014-6-7,92,80,72,74,70,67,94,75,48,30.02,29.81,27,4,27,0.07
2014-6-8,92,78,72,76,72,68,96,85,54,30.02,29.88,24,2,24,0.72
2014-6-9,91,77,68,78,72,66,98,84,52,29.99,29.89,20,2,20,0.05
2014-6-10,93,78,70,76,71,65,97,83,47,30.05,29.92,27,2,27,0.25
2014-6-11,84,73,70,76,71,67,96,91,73,30.00,29.91,29,3,29,0.57
2014-6-12,85,75,70,75,72,68,96,90,69,30.02,29.91,20,4,20,0.45
2014-6-13,84,77,71,76,72,68,98,87,68,30.01,29.92,20,4,20,0.04
2014-6-14,88,78,72,76,72,71,96,83,59,30.08,29.96,17,4,17,0.01
2014-6-15,91,78,69,74,69,60,96,78,49,30.13,30.04,44,3,44,0.20
2014-6-16,90,78,68,76,70,65,97,79,47,30.17,30.07,24,2,24,0.01
2014-6-17,89,79,69,76,71,67,97,77,51,30.17,30.06,20,3,20,0.15
2014-6-18,89,78,70,74,71,68,96,79,51,30.14,30.06,23,3,23,0.01
2014-6-19,89,80,70,77,72,69,97,76,53,30.14,30.04,13,2,13,0.00
2014-6-20,93,80,71,76,72,67,96,79,47,30.08,29.92,27,4,27,2.95
2014-6-21,88,78,70,78,73,67,97,86,66,30.03,29.89,30,4,30,0.40
2014-6-22,87,78,72,79,73,68,96,85,69,29.98,29.90,21,4,21,0.21
2014-6-23,90,77,71,77,73,69,96,87,57,30.08,29.94,22,2,22,0.42
2014-6-24,90,81,73,78,74,72,96,79,56,30.13,30.04,17,2,17,0.00
2014-6-25,91,82,73,77,74,69,98,77,51,30.14,30.00,13,2,13,0.01
2014-6-26,94,82,74,78,73,69,95,77,50,30.11,29.95,18,3,18,0.00
2014-6-27,96,82,74,78,73,68,93,74,42,30.11,30.01,21,4,21,0.00
2014-6-28,96,83,73,76,72,66,95,73,40,30.14,30.06,19,3,19,0.00
2014-6-29,95,83,75,77,73,69,92,74,44,30.14,30.02,20,4,21,0.03
2014-6-30,94,83,74,77,73,62,95,73,37,30.07,29.92,21,5,21,0.00
2014-7-1,94,83,74,77,73,69,97,75,45,29.96,29.85,16,4,20,0.00
2014-7-2,90,80,74,77,74,71,96,81,57,29.93,29.86,15,3,15,0.59
2014-7-3,92,79,73,79,74,69,96,85,56,30.09,29.92,32,3,32,0.59
2014-7-4,88,78,72,79,74,71,97,87,67,30.10,30.01,14,3,14,0.06
2014-7-5,90,79,72,77,74,70,96,85,62,30.15,30.04,17,2,17,0.07
2014-7-6,88,76,71,78,73,70,98,90,64,30.09,30.01,22,2,22,0.77
2014-7-7,88,79,71,77,73,70,98,84,58,30.12,30.03,14,3,14,0.01
2014-7-8,90,79,73,77,73,69,98,84,59,30.14,30.05,24,2,24,0.13
2014-7-9,87,78,72,78,74,71,98,89,71,30.13,30.04,15,2,15,0.26
2014-7-10,88,79,73,78,74,71,96,84,59,30.12,30.03,19,3,19,0.16
2014-7-11,90,78,71,78,73,70,98,86,58,30.15,30.03,21,3,21,0.64
2014-7-12,91,78,72,78,74,68,97,88,49,30.15,30.08,29,2,29,1.54
2014-7-13,90,80,74,79,74,71,99,85,58,30.13,30.04,14,2,14,0.01
2014-7-14,93,80,75,78,74,71,97,85,52,30.09,30.00,22,2,22,0.04
2014-7-15,88,78,74,78,74,70,95,87,63,30.03,29.92,25,3,25,0.37
2014-7-16,82,76,73,78,74,72,96,92,81,29.98,29.87,24,4,24,0.31
2014-7-17,90,81,73,77,74,68,97,80,50,30.02,29.90,24,2,24,0.21
2014-7-18,92,82,71,75,72,66,98,74,45,30.08,30.00,15,2,15,0.00
2014-7-19,92,83,76,78,74,68,96,77,48,30.08,30.00,15,3,15,0.00
2014-7-20,93,83,76,78,75,72,96,79,53,30.08,29.99,18,4,18,0.00
2014-7-21,92,81,75,79,74,69,95,81,51,30.07,29.97,19,2,19,0.40
2014-7-22,75,73,72,74,72,71,97,96,95,30.06,30.00,5,1,5,0.00
2014-7-23,91,81,74,77,75,73,96,82,56,30.08,29.99,13,1,19,0.11
2014-7-24,92,83,75,78,75,70,97,78,48,30.04,29.95,17,2,17,0.00
2014-7-25,91,81,73,78,75,70,95,83,61,30.07,29.99,24,3,24,1.21
2014-7-26,93,83,75,80,75,70,96,79,51,30.09,30.01,18,4,18,0.01
2014-7-27,92,83,77,80,76,72,95,79,57,30.08,30.00,22,3,22,0.05
2014-7-28,92,84,77,81,77,75,94,81,61,30.04,29.92,25,5,25,0.51
2014-7-29,92,84,79,81,77,73,93,80,60,29.96,29.88,26,5,26,0.06
2014-7-30,92,82,70,75,67,61,95,66,36,29.98,29.91,11,3,16,0.00
2014-7-31,92,81,71,78,70,66,88,69,45,29.99,29.91,14,2,14,0.00
2014-8-1,92,82,71,75,70,67,90,68,47,29.99,29.91,12,2,12,0.00
2014-8-2,90,80,75,78,74,70,94,83,62,29.99,29.93,12,1,12,0.00
2014-8-9,86,78,75,78,75,73,95,91,76,30.02,29.95,9,4,21,0.52
2014-8-10,80,76,74,76,74,72,96,94,86,30.01,29.93,8,2,17,0.67
2014-8-11,92,82,74,78,75,72,97,80,59,30.00,29.94,8,4,21,0.00
2014-8-12,89,81,76,79,76,73,96,86,69,30.02,29.94,8,3,26,0.28
2014-8-15,83,77,74,77,74,72,95,92,84,30.02,29.96,15,3,15,0.01
2014-8-16,88,78,71,79,75,70,98,90,69,30.07,29.99,14,2,18,0.17
2014-8-17,92,82,75,80,75,72,98,81,54,30.10,30.01,18,2,18,0.18
2014-8-18,94,83,75,79,75,73,98,79,52,30.06,29.95,23,3,23,0.00
2014-8-19,94,84,75,79,74,68,96,75,45,30.03,29.94,18,4,18,0.08
2014-8-20,94,84,74,79,75,70,97,77,48,30.08,29.97,18,3,18,0.00
2014-8-21,96,82,76,80,75,71,96,79,48,30.12,30.00,29,2,29,0.42
2014-8-22,95,80,74,77,73,69,95,80,46,30.08,29.96,42,2,42,0.35
2014-8-23,96,82,72,80,74,71,97,81,51,29.99,29.84,24,2,24,0.25
2014-8-24,97,82,75,81,75,69,95,83,45,29.89,29.76,35,3,35,0.18
2014-8-25,87,80,76,79,75,73,96,86,65,29.89,29.81,26,8,26,0.10
2014-8-26,91,81,73,76,72,69,97,78,49,29.97,29.86,22,6,22,0.02
2014-8-27,92,81,73,73,71,64,94,72,44,30.01,29.92,17,4,17,0.00
2014-8-28,93,81,69,76,71,67,96,76,47,30.01,29.92,16,2,16,0.00
2014-8-29,91,80,76,79,76,73,96,88,62,30.10,29.98,18,3,18,0.47
2014-8-30,93,81,74,77,74,69,98,81,51,30.14,30.02,26,2,26,0.06
2014-8-31,93,82,74,79,74,71,96,80,51,30.14,30.04,16,2,16,0.01
2014-9-1,93,85,75,78,74,69,96,72,46,30.12,30.00,14,2,14,0.00
2014-9-2,93,84,75,78,74,69,96,73,48,30.10,29.95,12,3,12,0.02
2014-9-3,92,82,76,78,73,0,93,77,49,30.06,29.95,15,3,20,0.00
2014-9-4,91,79,73,77,73,68,97,83,51,30.10,30.00,14,2,20,0.32
2014-9-5,87,76,73,78,74,72,97,92,67,30.12,30.04,15,2,17,0.48
2014-9-6,88,78,73,76,73,72,97,85,61,30.08,29.94,14,3,16,0.00
2014-9-7,87,77,74,77,73,71,96,89,67,30.02,29.94,15,3,20,0.27
2014-9-8,88,78,74,78,73,71,94,86,68,30.07,29.98,12,2,14,0.08
2014-9-9,87,78,74,78,74,73,97,91,68,30.08,30.01,7,1,8,0.04
2014-9-10,91,83,71,78,74,70,98,75,54,30.05,29.94,17,3,17,0.00
2014-9-11,92,81,73,79,74,70,98,81,53,30.04,29.94,11,2,15,0.04
2014-9-12,91,79,72,79,74,70,98,85,63,30.01,29.92,20,4,23,0.27
2014-9-13,90,80,73,76,74,71,97,82,54,30.09,29.96,14,2,15,0.03
2014-9-14,90,81,75,76,73,69,95,77,51,30.14,30.04,16,3,16,0.01
2014-9-15,92,80,74,77,74,71,95,82,54,30.16,30.07,13,2,13,0.04
2014-9-16,86,77,74,76,73,70,95,88,67,30.13,29.97,23,2,24,0.28
2014-9-17,86,78,72,75,72,71,96,85,66,29.97,29.84,9,1,9,0.00
2014-9-18,90,79,70,76,71,66,97,80,53,29.96,29.84,23,1,23,0.24
2014-9-19,81,75,70,77,72,68,96,91,76,29.99,29.90,17,2,20,0.11
2014-9-20,85,74,69,73,70,67,96,87,63,29.98,29.86,22,4,25,0.08